EW3619 Weather Reports


Display with metric or nautical units.
time (UTC)temp
F
wind
direction
speed
MPH
gust
MPH
rain 1hr
in
rain 24hr
in
rain mn
in
humidity
%
barometer
mb
20260503211513 67 330 3.0 11.0 0.00 0.00 0.00 1 1012.7
20260503210024 67 261 4.0 11.0 0.00 0.00 0.00 1 1012.6
20260503204506 68 247 5.0 12.0 0.00 0.00 0.00 1 1012.6
20260503203106 68 273 4.0 11.0 0.00 0.00 0.00 1 1012.7
20260503201555 67 295 5.0 14.0 0.00 0.00 0.00 1 1012.6
20260503200151 67 188 6.0 14.0 0.00 0.00 0.00 1 1013.0
20260503194601 66 266 3.0 16.0 0.00 0.00 0.00 1 1013.2
20260503193042 66 281 8.0 14.0 0.00 0.00 0.00 1 1013.2
20260503191538 66 245 5.0 13.0 0.00 0.00 0.00 1 1013.0
20260503190043 68 243 5.0 13.0 0.00 0.00 0.00 1 1013.0
20260503184531 69 284 2.0 7.0 0.00 0.00 0.00 1 1012.9
20260503183026 69 181 1.0 5.0 0.00 0.00 0.00 1 1012.8
20260503181521 69 207 1.0 6.0 0.00 0.00 0.00 1 1012.9
20260503180017 69 163 1.0 7.0 0.00 0.00 0.00 1 1013.2
20260503174512 68 122 1.0 6.0 0.00 0.00 0.00 1 1013.2
20260503173008 66 182 4.0 8.0 0.00 0.00 0.00 1 1013.2
20260503171503 64 57 1.0 5.0 0.00 0.00 0.00 1 1013.2
20260503100113 57 208 0.0 2.0 0.00 0.00 0.00 1 1011.6
20260503081543 57 214 0.0 2.0 0.00 0.00 0.00 1 1012.3
20260503071515 57 203 0.0 4.0 0.00 0.00 0.00 1 1013.1
20260503054542 57 246 2.0 7.0 0.00 0.00 0.00 1 1012.6
20260503053038 57 244 2.0 5.0 0.00 0.00 0.00 1 1012.7
20260503051533 57 257 1.0 4.0 0.00 0.00 0.00 1 1012.5
20260503050029 57 236 1.0 4.0 0.00 0.00 0.00 1 1012.0
20260503044537 57 213 3.0 8.0 0.00 0.00 0.00 1 1011.5
20260503043020 57 258 4.0 10.0 0.00 0.00 0.00 1 1011.6
20260503041515 57 232 4.0 9.0 0.00 0.00 0.00 1 1011.0
20260503040011 57 261 3.0 6.0 0.00 0.00 0.00 1 1010.9
20260503034507 57 236 2.0 7.0 0.00 0.00 0.00 1 1010.5
20260503033002 57 255 1.0 4.0 0.00 0.00 0.00 1 1010.6
20260503031608 57 245 3.0 9.0 0.00 0.00 0.00 1 1010.2
20260503030053 58 254 6.0 12.0 0.00 0.00 0.00 1 1010.3
20260503024548 58 268 7.0 10.0 0.00 0.00 0.00 1 1010.5
20260503023044 59 271 6.0 11.0 0.00 0.00 0.00 1 1010.1
20260503021543 60 247 6.0 11.0 0.00 0.00 0.00 1 1010.3
20260503020038 61 256 3.0 12.0 0.00 0.00 0.00 1 1010.1
20260503014532 63 269 5.0 10.0 0.00 0.00 0.00 1 1009.9
20260503013034 64 312 5.0 10.0 0.00 0.00 0.00 1 1009.9
20260503011522 66 230 5.0 10.0 0.00 0.00 0.00 1 1009.8
20260503010018 67 254 4.0 9.0 0.00 0.00 0.00 1 1009.8
20260503004514 69 223 5.0 11.0 0.00 0.00 0.00 1 1009.7
20260503003010 70 277 4.0 11.0 0.00 0.00 0.00 1 1009.7
20260503001504 71 257 5.0 11.0 0.00 0.00 0.00 1 1009.7
20260503000112 72 214 2.0 11.0 0.00 0.00 0.00 1 1009.6
20260502234559 73 208 5.0 10.0 0.00 0.00 0.00 1 1009.7
20260502233050 73 210 4.0 10.0 0.00 0.00 0.00 1 1009.6
20260502231609 73 266 5.0 13.0 0.00 0.00 0.00 1 1009.7
20260502230041 73 242 5.0 13.0 0.00 0.00 0.00 1 1009.7
20260502224537 72 174 5.0 11.0 0.00 0.00 0.00 1 1010.2
20260502223033 74 261 8.0 14.0 0.00 0.00 0.00 1 1010.4
20260502221534 74 245 5.0 13.0 0.00 0.00 0.00 1 1010.7
20260502220024 74 258 5.0 12.0 0.00 0.00 0.00 1 1010.6
20260502214520 74 279 4.0 13.0 0.00 0.00 0.00 1 1010.9
20260502213015 74 282 6.0 13.0 0.00 0.00 0.00 1 1011.2